Haines, AK

5:07 PM AKDT on March 26, 2017 (GMT -0800)
Haines

Weather History for PAHN - March, 2013

Change the Weather History Date:

Sunday, March 10, 2013

  Actual Average Record
Temperature  
Mean Temperature 37 °F -  
Max Temperature 39 °F 31 °F 45 °F (1984)
Min Temperature 35 °F 23 °F 7 °F (1989)
Degree Days  
Heating Degree Days 28    
Moisture  
Dew Point 32 °F    
Average Humidity 84    
Maximum Humidity 93    
Minimum Humidity 75    
Precipitation  
Precipitation 0.00 in - - ()
Sea Level Pressure  
Sea Level Pressure 30.24 in    
Wind  
Wind Speed 8 mph (East)    
Max Wind Speed 14 mph    
Max Gust Speed 22 mph    
Visibility 10 miles    
Events Rain    
Averages and records for this station are not official NWS values.
T = Trace of Precipitation, MM = Missing Value Source: NWS Daily Summary

Daily Weather History Graph

Daily Weather History Graph

Search for Another Location

Airport or City:

Trip Planner

Search our weather history database for the weather conditions in past years. The results will help you decide how hot, cold, wet, or windy it might be!

Date:

Astronomy

Mar. 10, 2013 Rise Set
Actual Time 7:31 AM AKDT 6:53 PM AKDT
Civil Twilight 6:51 AM AKDT 7:34 PM AKDT
Nautical Twilight 6:04 AM AKDT 8:21 PM AKDT
Astronomical Twilight 5:14 AM AKDT 9:11 PM AKDT
Moon 6:43 AM AKDT (3/10) 6:09 PM AKDT (3/10)
Length of Visible Light 12h 42m
Length of Day
11h 22m
Waning Crescent, 1% of the Moon is Illuminated
Mar 10
Waning Crescent
Mar 11
New
Mar 19
First Quarter
Mar 27
Full
Apr 2
Last Quarter

Hourly Weather History & Observations

Time (AKDT) Temp. Windchill Dew Point Humidity Pressure Visibility Wind Dir Wind Speed Gust Speed Precip Events Conditions
12:54 AM 36.0 °F 29.6 °F 34.0 °F 93% 30.09 in 10.0 mi East 8.1 mph - 0.00 in   Overcast
1:09 AM 35.6 °F 28.6 °F 33.8 °F 93% 30.09 in 10.0 mi East 9.2 mph 18.4 mph N/A   Overcast
1:54 AM 35.1 °F 27.4 °F 33.1 °F 92% 30.12 in 10.0 mi East 10.4 mph 16.1 mph N/A   Overcast
3:54 AM 35.1 °F 27.9 °F 33.1 °F 92% 30.14 in 10.0 mi East 9.2 mph - N/A   Overcast
4:54 AM 35.1 °F 29.3 °F 33.1 °F 92% 30.16 in 10.0 mi East 6.9 mph - 0.00 in Rain Light Rain
5:54 AM 35.1 °F 28.6 °F 33.1 °F 92% 30.18 in 10.0 mi ESE 8.1 mph - 0.00 in   Overcast
6:54 AM 36.0 °F 30.3 °F 33.1 °F 89% 30.19 in 10.0 mi Variable 6.9 mph - N/A   Overcast
7:54 AM 36.0 °F 28.5 °F 33.1 °F 89% 30.21 in 10.0 mi East 10.4 mph - N/A   Overcast
8:54 AM 36.0 °F 31.1 °F 33.1 °F 89% 30.21 in 10.0 mi East 5.8 mph - N/A   Overcast
9:54 AM 36.0 °F 29.6 °F 33.1 °F 89% 30.23 in 10.0 mi East 8.1 mph - N/A   Overcast
10:50 AM 37.4 °F 32.1 °F 33.8 °F 87% 30.23 in 10.0 mi East 6.9 mph - N/A   Overcast
10:54 AM 37.0 °F 30.4 °F 33.1 °F 86% 30.24 in 10.0 mi East 9.2 mph 17.3 mph N/A   Overcast
11:31 AM 37.4 °F 30.8 °F 33.8 °F 87% 30.24 in 10.0 mi ESE 9.2 mph - N/A   Overcast
11:54 AM 37.9 °F 30.5 °F 33.1 °F 83% 30.25 in 10.0 mi ESE 11.5 mph 18.4 mph N/A   Overcast
12:07 PM 37.4 °F 29.3 °F 33.8 °F 87% 30.25 in 10.0 mi ESE 12.7 mph 18.4 mph N/A   Overcast
12:54 PM 39.0 °F 31.8 °F 33.1 °F 79% 30.26 in 10.0 mi ESE 11.5 mph 21.9 mph N/A   Overcast
1:52 PM 39.2 °F 31.2 °F 32.0 °F 75% 30.25 in 10.0 mi ESE 13.8 mph 21.9 mph N/A   Mostly Cloudy
1:54 PM 39.0 °F 31.8 °F 32.0 °F 76% 30.26 in 10.0 mi ESE 11.5 mph 21.9 mph N/A   Mostly Cloudy
2:54 PM 39.0 °F 33.4 °F 32.0 °F 76% 30.27 in 10.0 mi ESE 8.1 mph 18.4 mph N/A   Mostly Cloudy
3:54 PM 37.0 °F 31.6 °F 32.0 °F 82% 30.28 in 10.0 mi East 6.9 mph 19.6 mph N/A   Mostly Cloudy
4:25 PM 37.4 °F 30.8 °F 32.0 °F 81% 30.28 in 10.0 mi East 9.2 mph - N/A   Overcast
4:41 PM 37.4 °F 31.4 °F 32.0 °F 81% 30.27 in 10.0 mi East 8.1 mph - N/A   Overcast
4:54 PM 37.0 °F 31.0 °F 32.0 °F 82% 30.28 in 10.0 mi East 8.1 mph - N/A   Overcast
5:54 PM 37.0 °F 30.4 °F 30.9 °F 79% 30.27 in 10.0 mi East 9.2 mph 20.7 mph N/A   Mostly Cloudy
6:54 PM 36.0 °F 33.3 °F 30.9 °F 82% 30.27 in 10.0 mi Variable 3.5 mph - N/A   Partly Cloudy
7:30 PM 35.6 °F 29.9 °F 30.2 °F 81% 30.26 in 10.0 mi ENE 6.9 mph - N/A   Mostly Cloudy
7:51 PM 35.6 °F 30.7 °F 30.2 °F 81% 30.26 in 10.0 mi Variable 5.8 mph - N/A   Overcast
7:54 PM 37.0 °F 31.6 °F 30.9 °F 79% 30.27 in 10.0 mi Variable 6.9 mph - N/A   Overcast
8:54 PM 36.0 °F 32.1 °F 30.9 °F 82% 30.27 in 10.0 mi ENE 4.6 mph - N/A   Mostly Cloudy
9:03 PM 35.6 °F 31.7 °F 30.2 °F 81% 30.26 in 10.0 mi East 4.6 mph - N/A   Scattered Clouds
9:32 PM 35.6 °F 32.8 °F 30.2 °F 81% 30.26 in 10.0 mi Variable 3.5 mph - N/A   Mostly Cloudy
9:54 PM 36.0 °F 29.6 °F 30.0 °F 79% 30.26 in 10.0 mi ENE 8.1 mph - N/A   Mostly Cloudy
10:03 PM 35.6 °F 29.2 °F 30.2 °F 81% 30.25 in 10.0 mi ENE 8.1 mph - N/A   Mostly Cloudy
10:54 PM 36.0 °F 30.3 °F 30.0 °F 79% 30.26 in 10.0 mi ENE 6.9 mph - N/A   Overcast
11:10 PM 35.6 °F 29.2 °F 30.2 °F 81% 30.25 in 10.0 mi ENE 8.1 mph - N/A   Overcast
11:39 PM 35.6 °F 29.9 °F 30.2 °F 81% 30.26 in 10.0 mi ESE 6.9 mph - N/A   Overcast
11:54 PM 35.1 °F 29.3 °F 32.0 °F 89% 30.28 in 10.0 mi East 6.9 mph 18.4 mph N/A   Overcast
12:54 AM 35.1 °F 31.0 °F 30.9 °F 85% 30.28 in 10.0 mi East 4.6 mph - 0.00 in   Overcast